Weather in Karkovo

Russia / Kostroma Oblast     58°11′57″N   44°37′31″E
temp.,
°C
wind,
m/s
gust,
m/s
humid.,
%
clouds,
%
prec.,
mm/h
press.,
hPa
HPBL,
m
11 april, sun
sun1100:00−2s27963 0.0 1027113
03:00−2ssw28964 0.0 1027128
06:00−1ssw310903 0.0 1027201
09:00+5sw48702 0.0 1028458
12:00+9sw46635 0.0 1028863
15:00+11wsw366655 0.0 10291340
18:00+5nnw1393100 0.0 103261
21:00+3ese009797 0.0 103410
12 april, mon
mon1200:00+2nw11976 0.0 103510
03:000ene119894 0.0 103716
06:00+3e249395 0.0 103894
09:00+6ese128182 0.0 1038217
12:00+11se23645 0.0 1037808
15:00+13se345847 0.0 10361137
18:00+9ese2579100 0.0 1035134
21:00+7se31090100 0.0 1035297
13 april, tue
tue1300:00+6se31089100 0.0 1034364
03:00+5se31094100 0.0 1032324
06:00+5sse3996100 0.0 1031250
09:00+11s4778100 0.0 1029390
12:00+16s476046 0.0 1028841
15:00+18s4856100 0.0 10261236
18:00+15s4106489 0.0 1026406
21:00+10s31177100 0.0 1026243
14 april, wed
wed1400:00+8s3107894 0.0 1025174
03:00+7ssw288372 0.0 1025136
06:00+7ssw268470 0.0 1025118
09:00+13ssw3658100 0.0 1024332
12:00+18ssw474218 0.0 10231065
15:00+20sw593938 0.0 10211800
18:00+16sw41050100 0.0 1021359
21:00+11ssw3970100 0.0 1021164
15 april, thu
thu1500:00+10sw287599 0.0 1020145
03:00+8w1182100 0.0 102010
06:00+7ne2393100 0.0 102087
09:00+11ne2177100 0.0 1019436
12:00+14nnw1261100 0.0 1018939
15:00+12nnw457088 0.0 1017627
18:00+7n4779100 0.0 1018554
21:00+3n41195100 1.2 1020497